User: anonymous   Login
Location: ??????
(30.5519°N, 47.7720°E)
Time: 21:16:33
(UTC+00:00)
Language:

PSLV R/B - Orbit

View from above orbital plane
View from above orbital plane
View from above satellite
View from above satellite

Ground track
Ground track

The orbit data is extracted from the following two-line orbital elements,

1 36800U 10035F   21112.41880243  .00000730  00000-0  72451-4 0  9996
2 36800  98.1623 308.4061 0022509  22.6403 337.5804 14.94910813586970
Epoch (UTC): 22 April 2021 10:03:04
Eccentricity: 0.0022509
inclination: 98.1623°
perigee height: 567 km
apogee height: 598 km
right ascension of ascending node: 308.4061°
argument of perigee: 22.6403°
revolutions per day: 14.94910813
mean anomaly at epoch: 337.5804°
orbit number at epoch: 58697

The dashed part of the orbit path shows where the satellite is in the earth's shadow,  

DLR